[[{"header":{"parameterUnit":"m.s-1","parameterCategory":1,"la1":30.2991,"la2":30.254,"lo1":-89.0895,"lo2":-89.0444,"dy":0.0017,"dx":0.0017,"nx":28,"ny":28,"refTime":"2023-09-26T03:00:00:Z","depth":0,"parameterNumber":2,"parameterNumberName":"U-component_of_WINDS"},"data":[0,0,0,0,0,0,0,0,0,0,0,0,0,0,0,0,0,0,0,0,0,0,0,0,0,0,0,0,0,0,0,0,0,0,0,0,0,0,0,0,0,0,0,0,0,0,0,0,0,0,0,0,0,0,0,0,0,0,-1.286,-1.2859,0,-1.2831,-1.2831,-1.2831,-1.2781,-1.278,-1.2779,-1.2778,-1.2751,-1.2751,-1.2751,0,0,0,0,0,0,0,0,0,0,0,0,0,-1.2872,-1.2872,-1.286,-1.2859,-1.2859,-1.2831,-1.2831,-1.2831,-1.2781,-1.278,-1.2779,-1.2778,-1.2751,-1.2751,-1.2751,0,0,0,0,0,0,0,0,0,0,0,0,0,-1.2858,-1.2872,-1.286,-1.2831,-1.2828,-1.2832,-1.2831,-1.2831,-1.2782,-1.278,-1.2779,-1.2777,-1.2751,-1.2751,-1.2751,-1.2781,0,0,-1.2752,-1.2752,0,0,0,0,0,0,0,0,-1.2859,-1.2857,-1.2835,-1.2833,-1.283,-1.2808,-1.2825,-1.2814,-1.2782,-1.2799,-1.2778,-1.2777,-1.2771,-1.277,-1.2768,-1.278,-1.2778,-1.2752,-1.2752,-1.2752,-1.2752,0,0,0,0,0,0,0,-1.286,-1.2858,-1.2848,-1.2835,-1.2832,-1.282,-1.2816,-1.2823,-1.2794,-1.2798,-1.2794,-1.2791,-1.2769,-1.2767,-1.2767,-1.2778,-1.2752,-1.2752,-1.2752,-1.2752,-1.2815,-1.2817,0,0,0,0,0,0,-1.2865,-1.286,-1.2849,-1.2848,-1.2841,-1.2821,-1.2817,-1.2817,-1.2793,-1.2788,-1.2792,-1.2789,-1.2768,-1.2766,-1.2765,-1.28,-1.2752,-1.2752,-1.2752,-1.2814,-1.2815,-1.2817,0,0,0,0,0,0,-1.2865,-1.2864,-1.285,-1.2853,-1.285,-1.2822,-1.2822,-1.2817,-1.2815,-1.2789,-1.2784,-1.2796,-1.2767,-1.2765,-1.2778,-1.2799,-1.2752,-1.2753,-1.2812,-1.2814,-1.2816,-1.2869,0,0,0,0,0,0,-1.2866,-1.2865,-1.2875,-1.2853,-1.285,-1.2863,-1.2824,-1.2817,-1.2815,-1.281,-1.2791,-1.2787,-1.2765,-1.2778,-1.2778,-1.2798,-1.2753,-1.281,-1.2813,-1.2816,-1.2866,-1.2873,-1.288,0,0,0,0,0,-1.2866,-1.2891,-1.2876,-1.2875,-1.2862,-1.2864,-1.2862,-1.2837,-1.2817,-1.2828,-1.2812,-1.2787,-1.2796,-1.2779,-1.2779,-1.28,-1.2808,-1.2812,-1.2815,-1.2862,-1.2872,-1.2879,0,0,0,0,0,0,-1.2917,-1.2888,-1.2871,-1.2889,-1.2879,-1.2856,-1.2868,-1.2847,-1.2843,-1.2839,-1.2808,-1.2804,-1.2822,-1.2812,-1.2794,-1.2828,-1.2798,-1.2802,-1.2834,-1.2843,-1.285,-1.2853,-1.2753,0,0,0,0,0,-1.293,-1.2933,-1.2908,-1.2926,-1.2922,-1.2896,-1.2896,-1.2877,-1.2867,-1.2862,-1.2847,-1.2838,-1.2839,-1.284,-1.2839,-1.2863,-1.286,-1.2878,-1.2885,-1.289,-1.2894,-1.2909,-1.2917,-1.2828,-1.2828,-1.2828,0,0,-1.2957,-1.2942,-1.2945,-1.2936,-1.2926,-1.2932,-1.2893,-1.29,-1.2904,-1.2863,-1.2875,-1.2864,-1.2851,-1.2871,-1.2878,-1.2863,-1.2918,-1.2895,-1.29,-1.29,-1.2913,-1.2922,-1.2929,-1.2831,-1.283,-1.283,0,0,-1.3009,-1.2997,-1.3012,-1.3004,-1.299,-1.2973,-1.2976,-1.2956,-1.2947,-1.2958,-1.2929,-1.2933,-1.2934,-1.2927,-1.2924,-1.2976,-1.2954,-1.2976,-1.3013,-1.3028,-1.3035,-1.3041,-1.3061,-1.3068,-1.298,-1.298,-1.298,0,-1.3045,-1.3051,-1.3023,-1.3032,-1.3029,-1.2993,-1.3009,-1.3002,-1.2988,-1.2988,-1.297,-1.2973,-1.2962,-1.298,-1.2993,-1.299,-1.2995,-1.2979,-1.3036,-1.3041,-1.3047,-1.3066,-1.3073,-1.2983,-1.2983,-1.2982,-1.2982,0,-1.3097,-1.3102,-1.3115,-1.3104,-1.3103,-1.3115,-1.3089,-1.3092,-1.3073,-1.3058,-1.3071,-1.3057,-1.3053,-1.3056,-1.3038,-1.3072,-1.3063,-1.3041,-1.3011,-1.3059,-1.3076,-1.3083,-1.2987,-1.2986,-1.2985,-1.2984,0,0,-1.3181,-1.3154,-1.316,-1.3155,-1.3137,-1.3141,-1.3152,-1.3148,-1.3152,-1.3144,-1.3154,-1.3156,-1.3136,-1.3133,-1.3113,-1.3126,-1.317,-1.3102,-1.3102,-1.3117,-1.321,-1.3228,-1.3237,-1.3155,-1.3156,-1.3157,-1.3211,0,-1.3231,-1.3248,-1.3224,-1.3247,-1.3252,-1.3218,-1.3228,-1.3219,-1.3206,-1.3208,-1.3193,-1.3197,-1.3169,-1.3167,-1.3177,-1.3163,-1.3189,-1.3158,-1.3165,-1.3166,-1.3172,-1.3245,-1.3264,-1.3316,-1.3218,-1.3219,-1.322,0,-1.3292,-1.3288,-1.3312,-1.3294,-1.3295,-1.3305,-1.3301,-1.3303,-1.3293,-1.3282,-1.3279,-1.3256,-1.3267,-1.3237,-1.3253,-1.3233,-1.3234,-1.3227,-1.3229,-1.323,-1.3197,-1.3251,-1.3332,-1.3341,-1.323,-1.3229,-1.3228,0,-1.3354,-1.3353,-1.3368,-1.3365,-1.3344,-1.3352,-1.3344,-1.3332,-1.3332,-1.3328,-1.3328,-1.3326,-1.3325,-1.3324,-1.3302,-1.3282,-1.3322,-1.3289,-1.3315,-1.3316,-1.3326,-1.3326,-1.3411,-1.3324,-1.3324,-1.3324,-1.3324,0,-1.3413,-1.343,-1.3396,-1.3405,-1.3423,-1.3395,-1.3414,-1.3402,-1.3392,-1.34,-1.3369,-1.3377,-1.3347,-1.3352,-1.3334,-1.3351,-1.3351,-1.3344,-1.3339,-1.3348,-1.3349,-1.3349,-1.3346,-1.3326,-1.3325,-1.3325,-1.3325,0,-1.3486,-1.3463,-1.3478,-1.3457,-1.3452,-1.3467,-1.3449,-1.3458,-1.3442,-1.3452,-1.3453,-1.3429,-1.3433,-1.3411,-1.3411,-1.34,-1.3426,-1.3415,-1.343,-1.3427,-1.3455,-1.3454,-1.3545,-1.3556,-1.346,-1.3461,-1.3462,0,-1.3526,-1.3538,-1.3519,-1.3522,-1.3515,-1.352,-1.352,-1.3493,-1.3494,-1.3484,-1.3494,-1.3496,-1.3496,-1.3505,-1.3488,-1.3489,-1.3478,-1.351,-1.3478,-1.3487,-1.3482,-1.3482,-1.3484,-1.3518,-1.3519,-1.352,-1.352,0,-1.3602,-1.359,-1.3591,-1.3589,-1.359,-1.3587,-1.3582,-1.3586,-1.3556,-1.356,-1.3564,-1.3564,-1.3564,-1.3568,-1.3565,-1.3557,-1.3535,-1.353,-1.3537,-1.3547,-1.3556,-1.3554,-1.3451,-1.3529,-1.3528,-1.3527,-1.3527,-1.3527,-1.3661,-1.3671,-1.3659,-1.3662,-1.3655,-1.3651,-1.3659,-1.3645,-1.3647,-1.3646,-1.3629,-1.3637,-1.3628,-1.3622,-1.3617,-1.3623,-1.3608,-1.3617,-1.3619,-1.3623,-1.3629,-1.3553,-1.3622,-1.3622,-1.3622,-1.3621,-1.3621,0,-1.3736,-1.3727,-1.373,-1.3724,-1.3727,-1.3704,-1.3698,-1.3702,-1.3709,-1.3702,-1.3703,-1.3708,-1.3711,-1.3695,-1.3696,-1.3705,-1.3695,-1.3706,-1.3706,-1.3706,-1.3641,-1.3636,-1.3715,-1.3715,-1.3715,-1.3714,-1.3714,-1.3714,-1.3776,-1.3792,-1.378,-1.3793,-1.3784,-1.3791,-1.379,-1.3787,-1.3781,-1.3789,-1.3791,-1.378,-1.377,-1.377,-1.3773,-1.3768,-1.3771,-1.3787,-1.3779,-1.3719,-1.371,-1.3701,-1.3697,-1.3787,-1.3787,-1.3843,-1.3844,-1.3844]},{"header":{"parameterUnit":"m.s-1","parameterCategory":1,"la1":30.2991,"la2":30.254,"lo1":-89.0895,"lo2":-89.0444,"dy":0.0017,"dx":0.0017,"nx":28,"ny":28,"refTime":"2023-09-26T03:00:00:Z","depth":0,"parameterNumber":3,"parameterNumberName":"V-component_of_WINDS"},"data":[0,0,0,0,0,0,0,0,0,0,0,0,0,0,0,0,0,0,0,0,0,0,0,0,0,0,0,0,0,0,0,0,0,0,0,0,0,0,0,0,0,0,0,0,0,0,0,0,0,0,0,0,0,0,0,0,0,0,-0.6795,-0.6794,0,-0.6719,-0.6718,-0.6718,-0.6683,-0.6683,-0.6683,-0.6683,-0.6606,-0.6604,-0.6602,0,0,0,0,0,0,0,0,0,0,0,0,0,-0.6911,-0.6909,-0.6795,-0.6794,-0.6793,-0.6719,-0.6718,-0.6717,-0.6683,-0.6683,-0.6683,-0.6683,-0.6607,-0.6604,-0.6602,0,0,0,0,0,0,0,0,0,0,0,0,0,-0.6851,-0.6909,-0.6795,-0.6767,-0.6763,-0.672,-0.6718,-0.6717,-0.6683,-0.6683,-0.6683,-0.6683,-0.6608,-0.6604,-0.6601,-0.658,0,0,-0.6592,-0.659,0,0,0,0,0,0,0,0,-0.6854,-0.6847,-0.6772,-0.6769,-0.6765,-0.671,-0.6731,-0.6671,-0.6683,-0.6713,-0.6683,-0.6683,-0.6641,-0.6635,-0.662,-0.6576,-0.6573,-0.6591,-0.6589,-0.6588,-0.6587,0,0,0,0,0,0,0,-0.6859,-0.685,-0.6765,-0.6771,-0.6767,-0.6759,-0.675,-0.672,-0.6677,-0.6711,-0.6708,-0.67,-0.6639,-0.6624,-0.6618,-0.6572,-0.6592,-0.6589,-0.6587,-0.6586,-0.6509,-0.6509,0,0,0,0,0,0,-0.6867,-0.6853,-0.6767,-0.6763,-0.6811,-0.6757,-0.6747,-0.6728,-0.6678,-0.667,-0.67,-0.6698,-0.6629,-0.6622,-0.6616,-0.6589,-0.6588,-0.6585,-0.6583,-0.6509,-0.6509,-0.6509,0,0,0,0,0,0,-0.687,-0.686,-0.677,-0.6807,-0.6795,-0.6754,-0.6733,-0.6726,-0.6711,-0.6669,-0.6662,-0.6692,-0.6629,-0.662,-0.659,-0.6586,-0.6584,-0.6581,-0.651,-0.6509,-0.6509,-0.6534,0,0,0,0,0,0,-0.6873,-0.6861,-0.6852,-0.6807,-0.6793,-0.6745,-0.6733,-0.6725,-0.6706,-0.6703,-0.666,-0.6653,-0.6628,-0.6595,-0.6587,-0.6581,-0.6578,-0.651,-0.6509,-0.6509,-0.6534,-0.6535,-0.6536,0,0,0,0,0,-0.6877,-0.6861,-0.6851,-0.6841,-0.6781,-0.6745,-0.6737,-0.6709,-0.6705,-0.6696,-0.667,-0.6654,-0.6587,-0.6592,-0.6582,-0.6576,-0.651,-0.651,-0.6509,-0.6533,-0.6535,-0.6536,0,0,0,0,0,0,-0.6905,-0.6855,-0.6843,-0.6812,-0.6783,-0.6739,-0.6726,-0.6711,-0.6683,-0.6682,-0.6648,-0.6639,-0.6612,-0.6591,-0.6597,-0.6554,-0.6547,-0.6545,-0.6569,-0.657,-0.6571,-0.6577,-0.6576,0,0,0,0,0,-0.6908,-0.6883,-0.684,-0.6816,-0.6803,-0.6767,-0.675,-0.6732,-0.67,-0.6688,-0.6659,-0.663,-0.6602,-0.6585,-0.6557,-0.6531,-0.6522,-0.6522,-0.6523,-0.6524,-0.6523,-0.6509,-0.6509,-0.6508,-0.6508,-0.6508,0,0,-0.6913,-0.6882,-0.6868,-0.6821,-0.6797,-0.6772,-0.6757,-0.6731,-0.6713,-0.6684,-0.6654,-0.6632,-0.6597,-0.6569,-0.6555,-0.6551,-0.6521,-0.6524,-0.6525,-0.6523,-0.6509,-0.6509,-0.6509,-0.6508,-0.6508,-0.6508,0,0,-0.6909,-0.6883,-0.6862,-0.6838,-0.6801,-0.6778,-0.6773,-0.6732,-0.6717,-0.6686,-0.6665,-0.6643,-0.6596,-0.6572,-0.6554,-0.6545,-0.653,-0.6537,-0.6544,-0.6531,-0.6531,-0.6531,-0.6529,-0.6528,-0.6536,-0.6536,-0.6536,0,-0.692,-0.6881,-0.6853,-0.6828,-0.6809,-0.6783,-0.6762,-0.674,-0.6697,-0.6685,-0.668,-0.6622,-0.6597,-0.6564,-0.6562,-0.6548,-0.6542,-0.6542,-0.6533,-0.6533,-0.6532,-0.653,-0.6529,-0.6537,-0.6537,-0.6537,-0.6537,0,-0.6897,-0.6871,-0.6858,-0.6818,-0.6797,-0.6775,-0.6744,-0.6727,-0.671,-0.6688,-0.6659,-0.6628,-0.6594,-0.6585,-0.6568,-0.6551,-0.6549,-0.654,-0.6532,-0.6534,-0.6532,-0.653,-0.6539,-0.6539,-0.6538,-0.6538,0,0,-0.6907,-0.6853,-0.6849,-0.6831,-0.679,-0.6769,-0.6747,-0.6715,-0.6701,-0.6673,-0.6654,-0.6616,-0.6607,-0.6587,-0.6568,-0.6557,-0.6554,-0.6549,-0.6547,-0.6551,-0.6534,-0.6541,-0.6541,-0.6544,-0.6543,-0.6543,-0.6537,0,-0.6899,-0.6856,-0.6831,-0.68,-0.6776,-0.6752,-0.6733,-0.6706,-0.6686,-0.6664,-0.6641,-0.6615,-0.6605,-0.6593,-0.6581,-0.6557,-0.655,-0.6557,-0.6526,-0.6525,-0.6536,-0.6539,-0.6547,-0.6542,-0.6536,-0.6535,-0.6535,0,-0.6882,-0.6856,-0.6822,-0.6786,-0.6775,-0.6758,-0.6728,-0.6706,-0.6676,-0.6662,-0.6641,-0.6622,-0.6599,-0.6594,-0.6562,-0.6567,-0.6554,-0.654,-0.6539,-0.6535,-0.653,-0.6536,-0.654,-0.654,-0.6533,-0.6533,-0.6533,0,-0.6895,-0.685,-0.6825,-0.681,-0.6767,-0.6756,-0.6737,-0.6707,-0.6691,-0.6664,-0.6653,-0.6625,-0.6609,-0.6588,-0.6562,-0.6561,-0.6533,-0.6526,-0.6522,-0.6523,-0.6517,-0.6518,-0.6519,-0.6508,-0.6508,-0.6508,-0.6508,0,-0.6888,-0.6869,-0.683,-0.6814,-0.6793,-0.6765,-0.6744,-0.6724,-0.6698,-0.6679,-0.6657,-0.6639,-0.6607,-0.6586,-0.6566,-0.6543,-0.6536,-0.6525,-0.652,-0.6527,-0.6528,-0.6517,-0.6517,-0.6507,-0.6507,-0.6508,-0.6508,0,-0.6897,-0.6871,-0.6842,-0.6804,-0.6794,-0.678,-0.6748,-0.6733,-0.6712,-0.6688,-0.6681,-0.6649,-0.6623,-0.6596,-0.6561,-0.6547,-0.6526,-0.6519,-0.6536,-0.6533,-0.6531,-0.6532,-0.6526,-0.6524,-0.6514,-0.6514,-0.6514,0,-0.6895,-0.688,-0.6841,-0.6827,-0.6809,-0.6786,-0.677,-0.6742,-0.6726,-0.6692,-0.6681,-0.6654,-0.6631,-0.6591,-0.6565,-0.6538,-0.6531,-0.6531,-0.6526,-0.6535,-0.6532,-0.6533,-0.6532,-0.6532,-0.6532,-0.6532,-0.6532,0,-0.6894,-0.6882,-0.6858,-0.6831,-0.6812,-0.6789,-0.6765,-0.6755,-0.6723,-0.6706,-0.6679,-0.6662,-0.6627,-0.6601,-0.6572,-0.6553,-0.6538,-0.6534,-0.6532,-0.6539,-0.655,-0.6545,-0.654,-0.6534,-0.6534,-0.6534,-0.6534,-0.6534,-0.6898,-0.6884,-0.6855,-0.683,-0.681,-0.6789,-0.6773,-0.6751,-0.6729,-0.6699,-0.6684,-0.6659,-0.6631,-0.6591,-0.6573,-0.6553,-0.6549,-0.6545,-0.6544,-0.6544,-0.6546,-0.6554,-0.6548,-0.6548,-0.6548,-0.6548,-0.6547,0,-0.6896,-0.6877,-0.6855,-0.6823,-0.6804,-0.6792,-0.6766,-0.6751,-0.6728,-0.6704,-0.6683,-0.6654,-0.6629,-0.6601,-0.6575,-0.6565,-0.6557,-0.6559,-0.6559,-0.6556,-0.6552,-0.6556,-0.6565,-0.6565,-0.6565,-0.6565,-0.6565,-0.6565,-0.6893,-0.687,-0.6855,-0.6822,-0.6803,-0.6778,-0.6765,-0.6746,-0.6726,-0.6695,-0.6675,-0.6657,-0.6632,-0.6604,-0.6582,-0.6574,-0.6566,-0.657,-0.6561,-0.6557,-0.6556,-0.6554,-0.6559,-0.6568,-0.6568,-0.6566,-0.6566,-0.6566]}]]